Location: Brno
(49.2000°N, 16.6330°E)
Time: 02:52:00
(UTC+01:00)

Cosmos 332 Rocket - Visible Passes

Search period start: 25 November 2017 00:00
Search period end: 05 December 2017 00:00
Orbit: 683 x 704 km, 74.0° (Epoch: 24 November)

Date Brightness Start Highest point End Pass type
(mag) Time Alt. Az. Time Alt. Az. Time Alt. Az.
25 Nov 5.4 05:32:51 10° S 05:37:15 37° ESE 05:41:41 10° NE visible
25 Nov 7.4 17:29:28 10° W 17:30:33 11° W 17:31:37 10° WSW visible
26 Nov 6.9 04:35:44 10° SE 04:38:23 15° E 04:41:03 10° ENE visible
26 Nov 3.7 06:13:23 10° SSW 06:18:10 78° WNW 06:23:02 10° NNE visible
27 Nov 5.1 05:14:28 10° S 05:18:57 41° ESE 05:23:29 10° NE visible
28 Nov 6.6 04:17:07 10° SE 04:20:03 16° E 04:23:01 10° ENE visible
28 Nov 3.7 05:55:08 10° SSW 05:59:55 71° WNW 06:04:45 10° NNE visible
29 Nov 4.8 04:56:06 10° S 05:00:39 45° ESE 05:05:15 10° NE visible
29 Nov 4.6 06:37:10 10° WSW 06:41:18 28° NW 06:45:29 10° N visible
30 Nov 6.4 03:58:32 10° SE 04:01:44 18° E 04:04:56 10° NE visible
30 Nov 3.7 05:36:53 10° SSW 05:41:39 65° WNW 05:46:28 10° NNE visible
01 Dec 4.6 04:37:44 10° S 04:42:21 50° ESE 04:47:02 10° NNE visible
01 Dec 4.7 06:19:03 10° WSW 06:23:05 26° NW 06:27:08 10° N visible
02 Dec 6.2 03:41:52 17° ESE 03:43:24 20° E 03:46:50 10° NE visible
02 Dec 3.7 05:20:43 25° SW 05:23:23 59° WNW 05:28:12 10° NNE visible
03 Dec 4.4 04:24:14 54° E 04:24:14 54° E 04:28:47 10° NNE visible
03 Dec 4.8 06:03:02 19° W 06:04:51 24° NW 06:08:49 10° N visible
04 Dec 6.4 03:27:09 16° ENE 03:27:09 16° ENE 03:28:42 10° NE visible
04 Dec 4.1 05:05:55 48° NNW 05:05:55 48° NNW 05:09:54 10° NNE visible
04 Dec 5.6 06:45:15 10° WNW 06:46:46 11° NW 06:48:16 10° NNW visible
